Regional Weather Roundup
Issued by NWS

Home | Current Version | Previous Version | Text Only | Print | Product List | Glossary Off
Versions: 1 2 3 4 5 6 7 8 9 10 11 12 13 14 15 16 17 18 19 20 21 22 23 24 25 26 27 28 29 30 31 32 33 34 35 36 37 38 39 40 41 42 43 44 45 46 47 48 49 50

000
ASUS43 KDMX 072201
RWRIA

WEATHER ROUNDUP FOR IOWA
NATIONAL WEATHER SERVICE DES MOINES IA
400 PM CST WED DEC 07 2016

NOTE: "FAIR" INDICATES FEW OR NO CLOUDS BELOW 12,000 FEET WITH NO
SIGNIFICANT WEATHER AND/OR OBSTRUCTIONS TO VISIBILITY.

* - THESE STATIONS ARE NOT NWS STATIONS...THUS NOT UNDER NWS
QUALITY CONTROL.  THEY ALSO DO NOT REPORT WEATHER SUCH
AS PRECIPITATION OR FOG.

IAZ001>003-012>014-020>022-031>034-043>046-072300-
   NORTHWEST IOWA

CITY           SKY/WX    TMP DP  RH WIND       PRES   REMARKS
CARROLL *      CLEAR     23  10  58 W23       30.26R WCI   7
CHEROKEE *     CLEAR     21   9  60 W16G24    30.26R WCI   7
DENISON *      CLEAR     21   9  58 W14G22    30.26R WCI   8
LE MARS *      MOCLDY    21   7  53 W18G30    30.30R WCI   6
ORANGE CITY *  PTCLDY    19  10  68 W29G36    30.24R WCI   1
SHELDON *      PTCLDY    19   9  63 W26G35    30.21R WCI   1
SIOUX CITY     CLEAR     22   7  52 NW17G29   30.31R WCI   8
SPENCER        CLEAR     20   7  57 W33G43    30.20R WCI   0
STORM LAKE *   CLEAR     19   9  63 W26       30.22R WCI   1
$$

IAZ055>058-069>071-079>083-090>094-072300-
   SOUTHWEST IOWA

CITY           SKY/WX    TMP DP  RH WIND       PRES   REMARKS
ATLANTIC *     PTCLDY    23  10  58 NW14      30.30R WCI  11
AUDUBON *      CLEAR     21  10  63 W12G18    30.28R WCI   9
CLARINDA *     CLOUDY    25  10  54 NW10G17   30.35R WCI  15
COUNCIL BLFS * CLEAR     23   7  50 NW15G23   30.32R WCI  10
CRESTON *      PTCLDY    21   9  58 NW21G29   30.29R WCI   6
HARLAN  *      CLEAR     21   9  58 NW16G22   30.34R WCI   7
LAMONI         CLOUDY    23  10  57 NW20      30.28R WCI   8
RED OAK *      CLOUDY    25   9  50 NW15      30.33R WCI  12
SHENANDOAH *   CLOUDY    25   9  50 NW12G21   30.35R WCI  14
$$

IAZ047>049-059>061-072>074-084-072300-
   CENTRAL IOWA

CITY           SKY/WX    TMP DP  RH WIND       PRES   REMARKS
AMES           PTCLDY    23  13  65 W18G28    30.24R WCI   9
ANKENY *       CLOUDY    25  10  54 W15G23    30.26R WCI  12
BOONE *        PTCLDY    21  10  63 W16G29    30.22R WCI   7
CHARITON *     PTCLDY    23  10  58 NW14G21   30.26R WCI  11
DES MOINES     CLOUDY    25   9  50 W16       30.26R WCI  12
GRINNELL*      PTCLDY    23  13  66 W18G26    30.22R WCI   9
KNOXVILLE *    PTCLDY    23   9  54 W18G25    30.25R WCI   9
MARSHALLTOWN   PTCLDY    23  13  65 W21G28    30.20R WCI   8
NEWTON *       PTCLDY    23  12  63 W17       30.23R WCI   9
PELLA *        PTCLDY    25  11  56 W15G23    30.26R WCI  12
PERRY *          N/A     24  14  67 W20       30.27R WCI   9
$$

IAZ004>006-015-016-023>025-035-036-072300-
   NORTH CENTRAL IOWA

CITY           SKY/WX    TMP DP  RH WIND       PRES   REMARKS
ALGONA *       MOCLDY    23  12  63 W20G25    30.18R WCI   8
CLARION *      MOCLDY    23  12  63 W22G32    30.19R WCI   8
ESTHERVILLE    PTCLDY    20  10  65 W25G32    30.18R WCI   2
FORT DODGE *   CLEAR     23   9  54 W16G26    30.22R WCI  10
MASON CITY     CLOUDY    22  11  62 W25       30.16R WCI   5
WEBSTER CITY * MOCLDY    23  12  63 NW21G29   30.20R WCI   8
IOWA FALLS *   CLOUDY    24  15  69 W22       30.20R WCI   9
$$

IAZ007>011-017>019-026>030-037>042-050>054-066-072300-
   NORTHEAST IOWA

CITY           SKY/WX    TMP DP  RH WIND       PRES   REMARKS
CEDAR RAPIDS   CLOUDY    22  16  78 W16       30.18R WCI   8
CHARLES CITY * CLOUDY    23  14  68 W20G25    30.14R WCI   8
CLINTON *      CLOUDY    24  18  77 W20       30.17  WCI  10
DECORAH *      FLURRIES  19  14  79 W8G20     30.10R WCI   9
DUBUQUE        CLOUDY    19  13  77 W16       30.14R WCI   4
MONTICELLO *   CLOUDY    23  16  74 W13       30.17R WCI  11
OELWEIN *      CLOUDY    23  16  74 W17       30.15R WCI   9
WATERLOO       CLOUDY    23  13  65 W21G29    30.18R WCI   8
$$

IAZ064-065-067-068-078-072300-
   EAST CENTRAL IOWA

CITY           SKY/WX    TMP DP  RH WIND       PRES   REMARKS
DAVENPORT      CLOUDY    25  16  68 W22       30.18R WCI  10
IOWA CITY      PTCLDY    25  14  63 W17G26    30.23R WCI  12
MUSCATINE *    CLOUDY    27  14  59 W17       30.23R WCI  14
QUAD CITIES    MOCLDY    27  15  61 W15G24    30.19R WCI  15
$$

IAZ062-063-075>077-085>089-095>099-072300-
   SOUTHEAST IOWA

CITY           SKY/WX    TMP DP  RH WIND       PRES   REMARKS
BURLINGTON     PTCLDY    28  16  60 W10       30.22R WCI  19
FAIRFIELD *    PTCLDY    27  12  54 W12G22    30.24R WCI  16
FORT MADISON * PTCLDY    28  16  59 W13       30.24R WCI  18
KEOKUK *       PTCLDY    30  14  51 W13       30.24R WCI  20
OSKALOOSA *      N/A     24  13  62 W20       30.25R WCI  10
CENTERVILLE *    N/A     25  12  58 W16       30.28R WCI  12
OTTUMWA        MOCLDY    26  11  52 W14       30.25R WCI  14
WASHINGTON *   MOCLDY    27  14  59 W14G21    30.24R WCI  15
$$

ABBREVIATIONS USED IN REMARKS
   TC - TEMPERATURES IN CELSIUS
  WCI - WIND CHILL INDEX
   HX - HEAT INDEX
  VSB - VISIBILITY
$$





USA.gov is the U.S. government's official web portal to all federal, state and local government web resources and services.